Weather History for Trinidad, CO

Change the Weather History Date:

Saturday, March 1, 2014

  Actual Average Record
Temperature  
Mean Temperature 41 °F 38 °F  
Max Temperature 70 °F 54 °F 75 °F (1967)
Min Temperature 12 °F 23 °F -8 °F (1960)
Degree Days  
Heating Degree Days 24 27  
Month to date heating degree days 24 27  
Since 1 July heating degree days 4018 4149  
Cooling Degree Days 0 0  
Month to date cooling degree days 0 0  
Year to date cooling degree days 0 0  
Moisture  
Dew Point 19 °F    
Average Humidity 55    
Maximum Humidity 91    
Minimum Humidity 19    
Precipitation  
Precipitation T in 0.03 in 0.28 in (1993)
Month to date precipitation T 0.03  
Year to date precipitation 0.09 0.92  
Sea Level Pressure  
Sea Level Pressure 29.81 in    
Wind  
Wind Speed 13 mph (ENE)    
Max Wind Speed 39 mph    
Max Gust Speed 50 mph    
Visibility 7 miles    
Events Fog , Snow    
T = Trace of Precipitation, MM = Missing Value Source: NWS Daily Summary

Daily Weather History Graph

Daily Weather History Graph

Search for Another Location

Airport:

Trip Planner

Search our weather history database for the weather conditions in past years. The results will help you decide how hot, cold, wet, or windy it might be!

Date:

Astronomy

Mar. 01, 2014 Rise Set
Actual Time 6:28 AM MST 5:51 PM MST
Civil Twilight 6:02 AM MST 6:17 PM MST
Nautical Twilight 5:32 AM MST 6:47 PM MST
Astronomical Twilight 5:01 AM MST 7:18 PM MST
Moon 6:24 AM MST (3/1) 6:39 PM MST (3/1)
Length of Visible Light 12h 15m
Length of Day
11h 23m
New Moon, 0% of the Moon is Illuminated
Mar 1
New Moon
Mar 8
First Quarter
Mar 16
Full
Mar 23
Last Quarter
Mar 30
New

Hourly Weather History & Observations

Time (MST) Temp. Windchill Dew Point Humidity Pressure Visibility Wind Dir Wind Speed Gust Speed Precip Events Conditions
12:54 AM 37.0 °F 32.4 °F 18.0 °F 46% 29.71 in 10.0 mi SSE 5.8 mph - N/A   Clear
1:54 AM 42.1 °F 38.4 °F 21.9 °F 45% 29.68 in 10.0 mi South 5.8 mph - N/A   Clear
2:54 AM 35.1 °F 29.3 °F 19.0 °F 52% 29.67 in 10.0 mi ENE 6.9 mph - N/A   Clear
3:54 AM 34.0 °F 27.2 °F 19.9 °F 56% 29.68 in 10.0 mi East 8.1 mph - N/A   Clear
4:54 AM 33.1 °F 26.9 °F 19.9 °F 59% 29.68 in 10.0 mi ENE 6.9 mph - N/A   Clear
5:54 AM 37.9 °F 32.1 °F 21.9 °F 53% 29.68 in 10.0 mi NE 8.1 mph - N/A   Clear
6:54 AM 53.1 °F - 26.1 °F 35% 29.64 in 10.0 mi SW 19.6 mph - N/A   Clear
7:54 AM 57.9 °F - 26.1 °F 30% 29.62 in 10.0 mi SW 26.5 mph 35.7 mph N/A   Clear
8:54 AM 60.1 °F - 26.1 °F 27% 29.61 in 10.0 mi SW 24.2 mph 38.0 mph N/A   Clear
9:54 AM 62.1 °F - 27.0 °F 26% 29.58 in 7.0 mi SSW 33.4 mph 43.7 mph N/A   Clear
10:54 AM 66.0 °F - 27.0 °F 23% 29.58 in 10.0 mi SSW 31.1 mph 43.7 mph N/A   Clear
11:54 AM 68.0 °F - 25.0 °F 20% 29.56 in 10.0 mi SW 32.2 mph 39.1 mph N/A   Clear
12:25 PM 44.1 °F 36.5 °F 24.1 °F 45% 29.75 in 4.0 mi North 17.3 mph 34.5 mph N/A   Haze
12:34 PM 39.9 °F 27.1 °F 23.0 °F 51% 29.75 in 2.5 mi NNE 38.0 mph 49.5 mph N/A   Haze
12:42 PM 32.0 °F 17.0 °F 21.9 °F 66% 29.79 in 2.0 mi NNE 33.4 mph 47.2 mph N/A   Haze
12:52 PM 28.4 °F 12.3 °F 21.2 °F 74% 29.79 in 4.0 mi NNE 32.2 mph 40.3 mph N/A   Haze
12:54 PM 28.0 °F 12.5 °F 21.0 °F 75% 29.80 in 4.0 mi NNE 28.8 mph 40.3 mph N/A   Haze
1:02 PM 28.9 °F 13.7 °F 21.0 °F 72% 29.80 in 5.0 mi NNE 28.8 mph 36.8 mph N/A   Haze
1:33 PM 23.0 °F 10.1 °F 19.0 °F 85% 29.90 in 2.5 mi North 15.0 mph 28.8 mph N/A   Overcast
1:50 PM 21.2 °F 9.5 °F 17.6 °F 86% 29.94 in 1.2 mi North 11.5 mph - N/A   Overcast
1:54 PM 21.0 °F 8.6 °F 18.0 °F 88% 29.96 in 1.0 mi North 12.7 mph - N/A   Overcast
2:09 PM 19.9 °F 6.2 °F 18.0 °F 92% 29.92 in 0.5 mi NE 15.0 mph - 0.00 in Fog , Snow Light Snow
2:28 PM 19.0 °F 6.8 °F 17.1 °F 92% 29.93 in 1.5 mi East 11.5 mph - 0.00 in Snow Light Snow
2:34 PM 19.0 °F 9.0 °F 16.0 °F 88% 29.94 in 2.0 mi East 8.1 mph - 0.00 in Snow Light Snow
2:54 PM 19.9 °F 9.3 °F 16.0 °F 85% 29.99 in 6.0 mi NE 9.2 mph - 0.00 in   Overcast
3:54 PM 19.9 °F 14.9 °F 17.1 °F 89% 29.96 in 10.0 mi Variable 3.5 mph - N/A   Overcast
4:54 PM 19.9 °F 14.9 °F 18.0 °F 92% 29.95 in 9.0 mi South 3.5 mph - N/A   Overcast
5:35 PM 21.9 °F - 18.0 °F 85% 29.88 in 10.0 mi Calm Calm - N/A   Scattered Clouds
5:54 PM 21.9 °F 17.2 °F 18.0 °F 85% 29.92 in 10.0 mi ENE 3.5 mph - N/A   Clear
6:54 PM 21.9 °F 11.0 °F 18.0 °F 85% 29.88 in 10.0 mi ENE 10.4 mph - N/A   Clear
7:41 PM 19.0 °F 10.0 °F 15.1 °F 85% 29.91 in 10.0 mi East 6.9 mph - N/A   Scattered Clouds
7:50 PM 19.4 °F 9.5 °F 15.8 °F 86% 29.91 in 10.0 mi ENE 8.1 mph - N/A   Mostly Cloudy
7:54 PM 19.0 °F 9.0 °F 15.1 °F 85% 29.88 in 10.0 mi East 8.1 mph - N/A   Mostly Cloudy
8:54 PM 19.0 °F 9.0 °F 15.1 °F 85% 29.90 in 10.0 mi NNE 8.1 mph - N/A   Overcast
9:54 PM 15.1 °F 2.5 °F 12.0 °F 88% 29.95 in 7.0 mi NE 10.4 mph - N/A   Overcast
10:10 PM 14.0 °F 1.2 °F 10.9 °F 88% 29.99 in 6.0 mi NE 10.4 mph - N/A   Overcast
10:54 PM 12.0 °F 1.5 °F 9.0 °F 88% 29.95 in 8.0 mi NE 6.9 mph - N/A   Overcast
11:54 PM 12.0 °F 2.7 °F 10.0 °F 92% 29.93 in 6.0 mi ENE 5.8 mph - N/A   Overcast